Thermal, CA

1:47 PM PST on January 16, 2018 (GMT -0800)
Desert Resorts Regional

Weather History for KTRM - May, 2013

Change the Weather History Date:

Thursday, May 2, 2013

  Actual Average Record
Temperature  
Mean Temperature 77 °F 75 °F  
Max Temperature 93 °F 92 °F 105 °F (1966)
Min Temperature 60 °F 58 °F 42 °F (2008)
Degree Days  
Heating Degree Days 0 0  
Month to date heating degree days 0 0  
Since 1 July heating degree days 1124 1180  
Cooling Degree Days 12 10  
Month to date cooling degree days 30 20  
Year to date cooling degree days 458 276  
Growing Degree Days 28 (Base 50)    
Moisture  
Dew Point 5 °F    
Average Humidity 8    
Maximum Humidity 14    
Minimum Humidity 2    
Precipitation  
Precipitation 0.00 in 0.00 in 0.00 in (2018)
Month to date precipitation 0.00 0.00  
Year to date precipitation 0.44 1.77  
Since 1 July precipitation 2.62  
Snow  
Snow 0.00 in - - ()
Month to date snowfall 0.0  
Year to date snowfall 0.0  
Snow Depth 0.00 in    
Sea Level Pressure  
Sea Level Pressure 30.09 in    
Wind  
Wind Speed 10 mph (NNW)    
Max Wind Speed 21 mph    
Max Gust Speed 29 mph    
Visibility 10 miles    
Events      
T = Trace of Precipitation, MM = Missing Value Source: NWS Daily Summary

Daily Weather History Graph

Daily Weather History Graph

Search for Another Location

Airport or City:

Trip Planner

Search our weather history database for the weather conditions in past years. The results will help you decide how hot, cold, wet, or windy it might be!

Date:

Astronomy

May. 02, 2013 Rise Set
Actual Time 5:54 AM PDT 7:28 PM PDT
Civil Twilight 5:28 AM PDT 7:55 PM PDT
Nautical Twilight 4:56 AM PDT 8:27 PM PDT
Astronomical Twilight 4:22 AM PDT 9:01 PM PDT
Moon 1:23 AM PDT (5/2) 12:43 PM PDT (5/2)
Length of Visible Light 14h 27m
Length of Day
13h 34m
Waning Gibbous, 46% of the Moon is Illuminated
May 2
Waning Gibbous
May 9
New
May 17
First Quarter
May 24
Full
May 31
Last Quarter

Hourly Weather History & Observations

Time (PDT) Temp. Dew Point Humidity Pressure Visibility Wind Dir Wind Speed Gust Speed Precip Events Conditions
12:52 AM 81.0 °F 1.0 °F 5% 30.05 in 10.0 mi North 9.2 mph - N/A   Clear
1:52 AM 79.0 °F 1.0 °F 5% 30.06 in 10.0 mi NNE 13.8 mph 19.6 mph N/A   Clear
2:52 AM 73.0 °F 8.1 °F 8% 30.08 in 10.0 mi NNW 5.8 mph - N/A   Clear
3:52 AM 72.0 °F 1.9 °F 6% 30.11 in 10.0 mi North 4.6 mph - N/A   Clear
4:52 AM 63.0 °F 12.0 °F 14% 30.13 in 10.0 mi NW 4.6 mph - N/A   Clear
5:52 AM 70.0 °F 3.9 °F 7% 30.14 in 10.0 mi North 5.8 mph - N/A   Clear
6:52 AM 71.1 °F 10.9 °F 10% 30.17 in 10.0 mi North 6.9 mph - N/A   Clear
7:52 AM 77.0 °F 12.9 °F 9% 30.19 in 10.0 mi NNW 9.2 mph - N/A   Clear
8:52 AM 81.0 °F 6.1 °F 6% 30.19 in 10.0 mi NNW 13.8 mph - N/A   Clear
9:52 AM 84.0 °F -2.0 °F 4% 30.19 in 10.0 mi NNW 17.3 mph 24.2 mph N/A   Clear
10:52 AM 84.9 °F -5.1 °F 4% 30.18 in 10.0 mi WNW 16.1 mph 20.7 mph N/A   Clear
11:52 AM 87.1 °F -4.0 °F 4% 30.17 in 10.0 mi WNW 15.0 mph 20.7 mph N/A   Clear
12:52 PM 89.1 °F -2.9 °F 4% 30.14 in 10.0 mi WNW 15.0 mph - N/A   Clear
1:52 PM 90.0 °F -6.0 °F 4% 30.11 in 10.0 mi WNW 10.4 mph 18.4 mph N/A   Clear
2:52 PM 89.1 °F -7.1 °F 4% 30.08 in 10.0 mi Variable 3.5 mph - N/A   Clear
3:52 PM 91.0 °F -6.0 °F 4% 30.04 in 10.0 mi WNW 9.2 mph - N/A   Clear
4:52 PM 93.0 °F -5.1 °F 4% 30.05 in 10.0 mi NW 8.1 mph - N/A   Clear
5:52 PM 91.9 °F -6.0 °F 4% 30.00 in 10.0 mi WNW 8.1 mph - N/A   Clear
6:52 PM 88.0 °F 12.9 °F 6% 29.99 in 10.0 mi Calm Calm - N/A   Clear
7:52 PM 78.1 °F 19.0 °F 11% 30.02 in 10.0 mi Calm Calm - N/A   Clear
8:52 PM 66.9 °F 19.9 °F 17% 29.99 in 10.0 mi WNW 8.1 mph - N/A   Clear
9:52 PM 73.0 °F 16.0 °F 11% 29.99 in 10.0 mi WNW 5.8 mph - N/A   Clear
10:52 PM 66.9 °F 19.0 °F 16% 29.99 in 10.0 mi NNW 5.8 mph - N/A   Clear
11:52 PM 69.1 °F 19.9 °F 15% 30.01 in 10.0 mi NNE 6.9 mph - N/A   Clear